| time (UTC) | temp F | wind direction | speed MPH | gust MPH | rain 1hr in | rain 24hr in | rain mn in | humidity % | barometer mb |
| 20260506044526 | 68 | 244 | 5.0 | 9.0 | 0.00 | 0.00 | 0.00 | 59 | 1014.7 |
| 20260506043027 | 69 | 257 | 6.0 | 9.0 | 0.00 | 0.00 | 0.00 | 58 | 1014.8 |
| 20260506041526 | 69 | 245 | 6.0 | 12.0 | 0.00 | 0.00 | 0.00 | 57 | 1014.7 |
| 20260506040029 | 69 | 242 | 6.0 | 10.0 | 0.00 | 0.00 | 0.00 | 56 | 1014.7 |
| 20260506034530 | 69 | 232 | 6.0 | 12.0 | 0.00 | 0.00 | 0.00 | 56 | 1014.8 |
| 20260506033028 | 70 | 246 | 8.0 | 15.0 | 0.00 | 0.00 | 0.00 | 54 | 1014.7 |
| 20260506031536 | 70 | 228 | 9.0 | 13.0 | 0.00 | 0.00 | 0.00 | 55 | 1014.6 |
| 20260506030030 | 70 | 207 | 9.0 | 14.0 | 0.00 | 0.00 | 0.00 | 55 | 1014.7 |
| 20260506024538 | 70 | 222 | 8.0 | 12.0 | 0.00 | 0.00 | 0.00 | 55 | 1014.6 |
| 20260506023028 | 70 | 227 | 8.0 | 12.0 | 0.00 | 0.00 | 0.00 | 55 | 1014.7 |
| 20260506021528 | 71 | 223 | 7.0 | 12.0 | 0.00 | 0.00 | 0.00 | 54 | 1014.6 |
| 20260506020028 | 71 | 221 | 8.0 | 12.0 | 0.00 | 0.00 | 0.00 | 54 | 1014.3 |
| 20260506014528 | 72 | 216 | 8.0 | 13.0 | 0.00 | 0.00 | 0.00 | 54 | 1014.1 |
| 20260506013031 | 72 | 225 | 6.0 | 9.0 | 0.00 | 0.00 | 0.00 | 54 | 1014.3 |
| 20260506011557 | 72 | 227 | 5.0 | 7.0 | 0.00 | 0.00 | 0.00 | 54 | 1014.4 |
| 20260506010027 | 72 | 227 | 4.0 | 7.0 | 0.00 | 0.00 | 0.00 | 53 | 1014.4 |
| 20260506004528 | 73 | 223 | 6.0 | 10.0 | 0.00 | 0.00 | 0.00 | 52 | 1014.3 |
| 20260506003027 | 73 | 213 | 6.0 | 10.0 | 0.00 | 0.00 | 0.00 | 51 | 1014.3 |
| 20260506001529 | 73 | 225 | 5.0 | 8.0 | 0.00 | 0.00 | 0.00 | 51 | 1014.2 |
| 20260506000044 | 73 | 246 | 4.0 | 7.0 | 0.00 | 0.00 | 0.00 | 50 | 1014.3 |
| 20260505234538 | 74 | 215 | 5.0 | 9.0 | 0.00 | 0.00 | 0.00 | 49 | 1014.2 |
| 20260505233027 | 74 | 233 | 5.0 | 10.0 | 0.00 | 0.00 | 0.00 | 48 | 1014.2 |
| 20260505231530 | 74 | 231 | 4.0 | 14.0 | 0.00 | 0.00 | 0.00 | 47 | 1014.3 |
| 20260505230048 | 75 | 246 | 8.0 | 17.0 | 0.00 | 0.00 | 0.00 | 46 | 1014.1 |
| 20260505224537 | 76 | 223 | 8.0 | 15.0 | 0.00 | 0.00 | 0.00 | 45 | 1014.2 |
| 20260505223027 | 76 | 210 | 5.0 | 15.0 | 0.00 | 0.00 | 0.00 | 43 | 1014.1 |
| 20260505221526 | 77 | 224 | 8.0 | 16.0 | 0.00 | 0.00 | 0.00 | 42 | 1014.0 |
| 20260505220027 | 77 | 247 | 6.0 | 16.0 | 0.00 | 0.00 | 0.00 | 43 | 1014.0 |
| 20260505214531 | 77 | 222 | 6.0 | 18.0 | 0.00 | 0.00 | 0.00 | 42 | 1014.1 |
| 20260505213027 | 76 | 213 | 11.0 | 19.0 | 0.00 | 0.00 | 0.00 | 41 | 1014.2 |
| 20260505211532 | 76 | 203 | 10.0 | 19.0 | 0.00 | 0.00 | 0.00 | 42 | 1014.3 |
| 20260505210029 | 76 | 198 | 8.0 | 22.0 | 0.00 | 0.00 | 0.00 | 42 | 1014.4 |
| 20260505203028 | 76 | 218 | 6.0 | 16.0 | 0.00 | 0.00 | 0.00 | 43 | 1014.5 |
| 20260505201530 | 76 | 227 | 8.0 | 16.0 | 0.00 | 0.00 | 0.00 | 43 | 1014.7 |
| 20260505200026 | 76 | 215 | 9.0 | 14.0 | 0.00 | 0.00 | 0.00 | 44 | 1014.9 |
| 20260505194534 | 76 | 227 | 8.0 | 19.0 | 0.00 | 0.00 | 0.00 | 43 | 1015.1 |
| 20260505193026 | 76 | 262 | 6.0 | 17.0 | 0.00 | 0.00 | 0.00 | 43 | 1015.3 |
| 20260505191528 | 76 | 182 | 9.0 | 17.0 | 0.00 | 0.00 | 0.00 | 43 | 1015.5 |
| 20260505190036 | 75 | 193 | 7.0 | 17.0 | 0.00 | 0.00 | 0.00 | 41 | 1015.8 |
| 20260505184534 | 75 | 206 | 12.0 | 22.0 | 0.00 | 0.00 | 0.00 | 42 | 1016.0 |
| 20260505183031 | 75 | 248 | 10.0 | 14.0 | 0.00 | 0.00 | 0.00 | 45 | 1016.2 |
| 20260505181531 | 75 | 255 | 5.0 | 13.0 | 0.00 | 0.00 | 0.00 | 47 | 1016.2 |
| 20260505180040 | 73 | 252 | 7.0 | 19.0 | 0.00 | 0.00 | 0.00 | 46 | 1016.4 |
| 20260505174532 | 73 | 235 | 8.0 | 20.0 | 0.00 | 0.00 | 0.00 | 45 | 1016.7 |
| 20260505173030 | 73 | 214 | 9.0 | 22.0 | 0.00 | 0.00 | 0.00 | 45 | 1017.0 |
| 20260505171530 | 73 | 182 | 7.0 | 20.0 | 0.00 | 0.00 | 0.00 | 46 | 1017.1 |
| 20260505170028 | 72 | 202 | 9.0 | 17.0 | 0.00 | 0.00 | 0.00 | 49 | 1017.1 |
| 20260505164529 | 72 | 184 | 5.0 | 14.0 | 0.00 | 0.00 | 0.00 | 51 | 1017.1 |
| 20260505163028 | 72 | 217 | 3.0 | 11.0 | 0.00 | 0.00 | 0.00 | 53 | 1017.2 |
| 20260505161528 | 70 | 226 | 6.0 | 14.0 | 0.00 | 0.00 | 0.00 | 54 | 1017.4 |
| 20260505153031 | 68 | 223 | 4.0 | 9.0 | 0.00 | 0.00 | 0.00 | 59 | 1017.6 |
| 20260505151533 | 68 | 218 | 2.0 | 5.0 | 0.00 | 0.00 | 0.00 | 61 | 1017.8 |
| 20260505124541 | 58 | 256 | 3.0 | 7.0 | 0.00 | 0.00 | 0.00 | 72 | 1017.0 |
| 20260505123026 | 57 | 192 | 3.0 | 8.0 | 0.00 | 0.00 | 0.00 | 74 | 1017.1 |
| 20260505121554 | 56 | 207 | 3.0 | 9.0 | 0.00 | 0.00 | 0.00 | 73 | 1016.9 |
| 20260505120030 | 56 | 188 | 4.0 | 6.0 | 0.00 | 0.00 | 0.00 | 71 | 1016.6 |
| 20260505114528 | 56 | 209 | 2.0 | 5.0 | 0.00 | 0.00 | 0.00 | 71 | 1016.3 |
| 20260505113031 | 55 | 195 | 3.0 | 7.0 | 0.00 | 0.00 | 0.00 | 70 | 1016.2 |
| 20260505111535 | 55 | 197 | 5.0 | 7.0 | 0.00 | 0.00 | 0.00 | 69 | 1016.2 |
| 20260505093032 | 56 | 224 | 6.0 | 11.0 | 0.00 | 0.00 | 0.00 | 67 | 1016.0 |
| 20260505091534 | 57 | 229 | 6.0 | 12.0 | 0.00 | 0.00 | 0.00 | 67 | 1015.8 |
| 20260505090029 | 56 | 239 | 6.0 | 10.0 | 0.00 | 0.00 | 0.00 | 69 | 1015.8 |
| 20260505084526 | 56 | 263 | 5.0 | 10.0 | 0.00 | 0.00 | 0.00 | 70 | 1015.7 |
| 20260505083041 | 57 | 231 | 6.0 | 10.0 | 0.00 | 0.00 | 0.00 | 70 | 1015.8 |
| 20260505081531 | 58 | 244 | 7.0 | 11.0 | 0.00 | 0.00 | 0.00 | 66 | 1015.5 |
| 20260505080042 | 59 | 269 | 8.0 | 11.0 | 0.00 | 0.00 | 0.00 | 65 | 1015.4 |
| 20260505074529 | 59 | 273 | 7.0 | 9.0 | 0.00 | 0.00 | 0.00 | 65 | 1015.3 |
| 20260505073027 | 59 | 261 | 8.0 | 10.0 | 0.00 | 0.00 | 0.00 | 65 | 1015.3 |
| 20260505071537 | 59 | 277 | 6.0 | 9.0 | 0.00 | 0.00 | 0.00 | 65 | 1015.4 |
| 20260505070030 | 60 | 311 | 5.0 | 8.0 | 0.00 | 0.00 | 0.00 | 64 | 1015.4 |
| 20260505064530 | 60 | 288 | 5.0 | 10.0 | 0.00 | 0.00 | 0.00 | 64 | 1015.7 |
| 20260505063042 | 60 | 281 | 7.0 | 10.0 | 0.00 | 0.00 | 0.00 | 63 | 1015.6 |
| 20260505061533 | 60 | 263 | 8.0 | 11.0 | 0.00 | 0.00 | 0.00 | 62 | 1015.6 |
| 20260505060026 | 61 | 272 | 8.0 | 11.0 | 0.00 | 0.00 | 0.00 | 61 | 1015.8 |
| 20260505054538 | 61 | 258 | 7.0 | 10.0 | 0.00 | 0.00 | 0.00 | 60 | 1015.7 |
| 20260505053028 | 62 | 255 | 8.0 | 11.0 | 0.00 | 0.00 | 0.00 | 58 | 1015.8 |